Regional Weather Roundup
Issued by NWS

Home | Current Version | Previous Version | Graphics & Text | Print | Product List | Glossary On
Versions: 1 2 3 4 5 6 7 8 9 10 11 12 13 14 15 16 17 18 19 20 21 22 23 24 25 26 27
000
ASUS45 KPSR 231410
RWRAZ

ARIZONA HOURLY REGIONAL WEATHER ROUNDUP
NATIONAL WEATHER SERVICE PHOENIX AZ
700 AM MST THU NOV 23 2017

NOTE: FAIR INDICATES FEW OR NO CLOUDS BELOW 12,000 FEET WITH NO
SIGNIFICANT WEATHER AND/OR OBSTRUCTIONS TO VISIBILITY.

AZZ001>003-036-231500-
NORTHWEST ARIZONA

CITY           SKY/WX    TMP DP  RH WIND       PRES   REMARKS
BULLHEAD CITY  CLEAR     63  36  36 CALM      30.10S
KINGMAN        CLEAR     47  29  49 CALM      30.23S
$$

AZZ004>008-015-016-018-231500-
NORTH CENTRAL ARIZONA

CITY           SKY/WX    TMP DP  RH WIND       PRES   REMARKS
GRAND CANYON   PTCLDY    23  21  92 CALM      30.42S
WILLIAMS       CLEAR     32  23  69 S13       30.40R WCI  22
PRESCOTT       PTCLDY    38  28  67 S6        30.33S WCI  33
FLAGSTAFF      PTCLDY    24  20  84 CALM      30.43S
PAYSON         CLEAR     54  30  40 NE8       30.33R
PAGE           PTCLDY    42  29  59 W3        30.35S
$$

AZZ009>014-017-231500-
NORTHEAST ARIZONA

CITY           SKY/WX    TMP DP  RH WIND       PRES   REMARKS
WINSLOW        MOCLDY    29  19  66 SE6       30.38S WCI  23
SAINT JOHNS    CLOUDY    28  18  66 S3        30.39R
WINDOW ROCK    PTCLDY    28  22  78 CALM      30.41S
SHOW LOW       PTCLDY    32  25  74 CALM      30.42R
$$

AZZ540-542>544-546-548-231500-
GREATER PHOENIX AREA

CITY           SKY/WX    TMP DP  RH WIND       PRES   REMARKS
PHOENIX        PTCLDY    60  36  40 E3        30.08R
BUCKEYE        CLEAR     52  23  32 CALM      30.09S
GLENDALE       PTCLDY    54  34  47 CALM      30.10R
LUKE AFB       CLEAR     53  33  46 N7        30.08R
DEER VALLEY    CLEAR     57  31  37 CALM      30.09R
SCOTTSDALE     CLEAR     58  36  43 CALM      30.10S
MESA-FALCON    PTCLDY    64  32  29 E6        30.10R
MESA-GATEWAY   CLEAR     52  23  32 E6        30.10S
CHANDLER       CLEAR     52  36  54 CALM      30.09S
$$

AZZ539-553-231500-
SOUTHWEST MARICOPA COUNTY AND PINAL COUNTY

CITY           SKY/WX    TMP DP  RH WIND       PRES   REMARKS
CASA GRANDE    NOT AVBL
$$

AZZ503-504-507>509-231500-
SOUTHEAST ARIZONA

CITY           SKY/WX    TMP DP  RH WIND       PRES   REMARKS
TUCSON         CLEAR     54  20  26 S10       30.17R
DAVIS-MONTHAN  CLEAR     56  19  24 SE9       30.14S
RYAN FIELD     CLEAR     48  21  34 SE5       30.16R
NOGALES        CLEAR     45  20  36 E3        30.21R
SIERRA VISTA   PTCLDY    48  18  30 S7        30.27R
DOUGLAS        PTCLDY    34  16  47 N6        30.26R WCI  29
SAFFORD        PTCLDY    39  15  37 SE5       30.23R
$$

AZZ532-231500-
SOUTHWEST ARIZONA

CITY           SKY/WX    TMP DP  RH WIND       PRES   REMARKS
YUMA           CLEAR     61  35  37 NE3       30.04R
$$

CAZ041-043-047-048-061-525>527-560>570-231500-
SOUTHERN CALIFORNIA

CITY           SKY/WX    TMP DP  RH WIND       PRES   REMARKS
DOWNTOWN L.A.  CLEAR     70  39  32 NE5       30.01R
L.A. AIRPORT   PTCLDY    72  40  31 NE6       30.01R
SAN DIEGO      CLEAR     62  42  47 CALM      30.01S
BURBANK        CLEAR     62  40  44 CALM      30.03F
ONTARIO        CLEAR     61  39  44 N6        30.05S
RIVERSIDE      CLEAR     62  41  46 NE6       30.05S
PALM SPRINGS   CLEAR     65  39  38 N8        30.07R
EL CENTRO NAS  CLEAR     57  33  40 W5        30.05R
IMPERIAL       CLEAR     56  36  47 W6        30.02S
BLYTHE         CLEAR     54  29  38 NE3       30.08R
NEEDLES        CLEAR     62  36  37 W7        30.11R
$$

NVZ020-UTZ003-231500-
SOUTHERN NEVADA-UTAH

CITY           SKY/WX    TMP DP  RH WIND       PRES   REMARKS
LAS VEGAS      PTCLDY    56  37  49 SW3       30.19R
SALT LAKE CITY MOCLDY    47  40  76 SE8       30.25F
$$

NMZ009-TXZ055-231500-
NEW MEXICO-WEST TEXAS

CITY           SKY/WX    TMP DP  RH WIND       PRES   REMARKS
ALBUQUERQUE    CLOUDY    41  28  60 N5        30.35R
EL PASO        PTCLDY    44  27  51 N7        30.27R
$$


........................KEY........................
SKY/WX - SKY CONDITION/WEATHER
TMP    - TEMPERATURE IN FAHRENHEIT
DP     - DEW POINT IN FAHRENHEIT
RH     - RELATIVE HUMIDITY IN PERCENT
WIND   - DIRECTION AND SPEED IN MILES PER HOUR (MPH)
VRB    - VARIABLE WIND DIRECTION
PRES   - MEAN SEA LEVEL PRESSURE IN INCHES OF MERCURY
         F - FALLING PRESSURE   R - RISING PRESSURE
         S - STEADY PRESSURE
VSB    - VISIBILITY IN MILES
HX     - HEAT INDEX IN FAHRENHEIT
WCI    - WIND CHILL INDEX IN FAHRENHEIT
TC     - TEMPERATURE IN CELSIUS WHICH IS ALSO KNOWN AS
         TEMPERATURE IN CENTIGRADE
AFB    - AIR FORCE BASE
         LUKE AFB IS LUKE AIR FORCE BASE
         DAVIS-MONTHAN IS DAVIS-MONTHAN AIR FORCE BASE
NAS    - NAVAL AIR STATION
         EL CENTRO NAS IS EL CENTRO NAVAL AIR STATION
N/A    - NOT AVAILABLE





USA.gov is the U.S. government's official web portal to all federal, state and local government web resources and services.